Weather Roundup
Issued by NWS Chicago, IL

Home | Current Version | Previous Version | Text Only | Print | Product List | Glossary Off
Versions: 1 2 3 4 5 6 7 8 9 10 11 12 13 14 15 16 17 18 19 20 21 22 23 24 25 26 27 28 29 30 31 32 33 34 35 36 37 38 39 40 41 42 43 44 45 46 47 48 49 50

000
NZUS59 KLOT 010302
HRRLOT

CHICAGO AREA WEATHER ROUNDUP
NATIONAL WEATHER SERVICE CHICAGO/ROMEOVILLE IL
1000 PM CDT FRI JUL 31 2015

NOTE: "FAIR" INDICATES FEW OR NO CLOUDS BELOW 12,000 FEET WITH NO
SIGNIFICANT WEATHER AND/OR OBSTRUCTIONS TO VISIBILITY.

* THESE STATIONS ARE NOT UNDER NWS QUALITY CONTROL. THEY ALSO MAY NOT
  REPORT WEATHER SUCH AS PRECIPITATION OR FOG.

ILZ005-006-012>014-019>023-010400-
NORTHEAST ILLINOIS

CITY           SKY/WX    TMP DP  RH WIND       PRES   REMARKS
OHARE          CLEAR     72  51  47 NW7       29.97R
MIDWAY         PTCLDY    77  49  37 NW6       29.97R
AURORA         CLEAR     62  54  74 W6        29.99R
WAUKEGAN       CLEAR     65  54  67 CALM      29.96R
DUPAGE AIRPORT CLEAR     69  54  58 W5        29.98R
WHEELING       CLEAR     74  49  41 NW6       29.98R
NORTHERLY IS     N/A     77  46  33 NW7         N/A
$$

WIZ051-052-058>065-066-070>072-010400-
SOUTHEAST WISCONSIN

CITY           SKY/WX    TMP DP  RH WIND       PRES   REMARKS
MILWAUKEE      PTCLDY    75  50  41 W8        29.95R
KENOSHA*       CLEAR     64  52  64 W6        29.97R
RACINE*        CLEAR     71  50  47 W5        29.97R
$$

INZ001>003-010>013-019-020-010400-
NORTHWEST INDIANA

CITY           SKY/WX    TMP DP  RH WIND       PRES   REMARKS
GARY*          CLEAR     77  46  33 NW9       29.97R
MICHIGAN CITY* NOT AVBL
RENSSELAER*    NOT AVBL
$$

LMZ740>746-010400-
SOUTHERN LAKE MICHIGAN

STATION/POSITION TIME  SKY/WX   TEMP WIND        PRES    VSBY
                                AIR  DIR/SP/G
                 (UTC)          (F)  (DEG/KT/KT) (MB)    (MI)
HARRISON CRIB    0200            78  310/ 12/ 13   N/A
BURNHAM HARBOR   0300            77  280/  5/ 11   N/A
CALUMET HARBOR   0200            79  300/  6/  9   N/A
BURNS HARBOR     0200            76  340/ 10/ 12 1014.6R
MICHIGAN CITY    0200            74  320/  9/ 10   N/A
$$

ABBREVIATIONS USED IN REMARKS
   TC - TEMPERATURE IN CELSIUS
  WCI - WIND CHILL INDEX
   HX - HEAT INDEX
  VSB - VISIBILITY
$$



USA.gov is the U.S. government's official web portal to all federal, state and local government web resources and services.